sat.trackr.live / text

‹ back to catalog

UNKNOWN

NORAD 81134

UNKNOWN UNKNOWN UNKNOWN

§ Identity

Operator
Country
Launch date
Launch site
Launch vehicle
Mass (kg)
RCS (m²)

External: N2YO · Heavens-Above

§ Orbital elements

Epoch: 2026-05-24T01:22:05.430720Z

Period
111.37 min
Inclination
90.2522°
Eccentricity
0.0024899
Mean motion
12.93039514 rev/d
Perigee alt
1,270.4 km
Apogee alt
1,308.6 km
Semi-major
7,667.6 km
B*
3.6457e-4
RAAN
7.7392°
Arg perigee
328.4918°
Mean anomaly
31.4708°
Rev number
48,358

§ Raw data

UNKNOWN1 81134U          26144.05700730  .00000107  00000+0  36457-3 0  99912 81134  90.2522   7.7392 0024899 328.4918  31.4708 12.93039514483582

JSON: /api/v1/satellites/81134 · /tle

For live sub-satellite position, see the globe view (requires WebGL).

§ Visibility from observer

Set your observer location to see the next 7 days of passes ≥ 10°. The values pass through the URL so the page stays shareable.

No JS? Fill the form by hand. The geolocation button needs JavaScript.